Location: Carnières
(50.1682°N, 3.3474°E)
Time: 04:58:04
(UTC+00:00)

Cosmos 2292 - Pass Details

Date: 23 May 2024
Orbit: 393 x 1649 km, 83.0° (Epoch: 19 June)

Event Time Altitude Azimuth Distance (km) Brightness Sun altitude
Rises 02:37:23 0° 347° (NNW) 2,314 8.6 -9.4°
Reaches altitude 10° 02:39:17 10° 344° (NNW) 1,476 7.5 -9.2°
Maximum altitude 02:42:21 63° 263° (W) 500 4.4 -8.9°
Drops below altitude 10° 02:45:56 10° 182° (S) 1,724 6.9 -8.5°
Enters shadow 02:47:30 - 180° (S) 2,407 7.7 -8.4°
